Weather reports worldwide

Advertisment
Aguilas, Spain (8432): temperature & dewpoint: 08.12.2018 01:00:00 - 14.12.2018 01:00:00 (CET)Aguilas, Spain (8432): wind speed & gusts: 08.12.2018 01:00:00 - 14.12.2018 01:00:00 (CET)Aguilas, Spain (8432): wind direction: 08.12.2018 01:00:00 - 14.12.2018 01:00:00 (CET)Aguilas, Spain (8432): reduced air pressure: 08.12.2018 01:00:00 - 14.12.2018 01:00:00 (CET)Aguilas, Spain (8432): visibility: 08.12.2018 01:00:00 - 14.12.2018 01:00:00 (CET)Aguilas, Spain (8432): sunshine duration: 08.12.2018 01:00:00 - 14.12.2018 01:00:00 (CET)Aguilas, Spain (8432): precipitation: 08.12.2018 01:00:00 - 14.12.2018 01:00:00 (CET)
Date & Time tt [°C] td [°C] ff [km/h] ff [kn] fx [km/h] fx [kn] dd ppp [hPa] vv [km] sd [min] rr [mm]
14.12.2018 01:00:00 - - - - - - - - - - -
14.12.2018 00:00:00 12,9 0,0 7 4 31 17 WSW 1011,8 20 0 0,0
13.12.2018 23:00:00 14,1 -2,0 22 12 53 29 NW 1011,1 20 0 0,0
13.12.2018 22:00:00 13,6 -0,7 18 10 44 24 NW 1010,4 20 0 0,0
13.12.2018 21:00:00 11,6 1,5 8 4 42 23 NW 1010,8 20 0 0,0
13.12.2018 20:00:00 12,6 1,5 19 10 33 18 NW 1010,0 20 0 0,0
13.12.2018 19:00:00 13,0 1,7 13 7 37 20 WNW 1009,2 20 0 -
13.12.2018 18:00:00 13,6 2,3 11 6 42 23 WNW 1008,7 20 10 0,0
13.12.2018 17:00:00 15,6 1,3 19 11 58 31 W 1007,7 20 60 0,0
13.12.2018 16:00:00 16,3 1,3 30 16 63 34 WNW 1007,2 20 60 0,0
13.12.2018 15:00:00 15,7 3,8 38 21 70 38 WNW 1006,8 20 31 0,0
13.12.2018 14:00:00 13,2 8,5 19 10 42 23 WNW 1008,0 20 0 1,8
13.12.2018 13:00:00 16,7 9,4 8 4 15 8 WNW 1008,5 20 39 -
13.12.2018 12:00:00 16,9 9,6 9 5 14 8 E 1008,5 20 38 0,0
13.12.2018 11:00:00 14,7 8,9 4 2 14 8 NE 1010,8 20 0 0,0
13.12.2018 10:00:00 13,2 9,8 3 2 10 5 WNW 1012,1 11 0 0,2
13.12.2018 09:00:00 12,4 8,9 5 3 9 5 N 1013,3 12 0 0,4
13.12.2018 08:00:00 12,5 8,0 3 2 9 5 NW 1013,4 12 0 0,2
13.12.2018 07:00:00 12,3 6,5 4 2 9 5 N 1013,6 18 0 -
13.12.2018 06:00:00 12,0 6,8 6 4 10 5 N 1013,8 20 0 0,0
13.12.2018 05:00:00 11,8 5,6 2 1 16 9 N 1014,3 20 0 0,0
13.12.2018 04:00:00 12,2 5,3 10 5 20 11 NNW 1014,9 20 0 0,0
13.12.2018 03:00:00 11,8 6,2 10 5 17 9 NW 1015,2 20 0 0,0
13.12.2018 02:00:00 12,7 7,8 5 3 11 6 NNE 1015,9 20 0 0,0
13.12.2018 01:00:00 13,2 7,0 3 2 9 5 N 1016,5 20 0 -
13.12.2018 00:00:00 12,7 7,4 6 3 10 5 NNW 1017,3 17 0 0,0
12.12.2018 23:00:00 11,7 6,4 2 1 9 5 SSE 1017,5 20 0 0,0
12.12.2018 22:00:00 12,1 7,0 5 3 10 6 N 1017,9 20 0 0,0
12.12.2018 21:00:00 12,7 8,1 4 2 8 4 NNE 1017,9 18 0 0,0
12.12.2018 20:00:00 12,6 8,5 1 1 6 4 NNW 1018,2 14 0 0,0
12.12.2018 19:00:00 14,0 9,2 1 1 6 3 ENE 1018,4 11 0 -
12.12.2018 18:00:00 16,4 11,1 2 1 6 3 SW 1018,1 15 10 0,0
12.12.2018 17:00:00 18,5 11,3 3 2 11 6 WSW 1018,2 20 60 0,0
12.12.2018 16:00:00 18,5 10,5 6 4 15 8 SW 1018,1 20 60 0,0
12.12.2018 15:00:00 19,1 9,3 9 5 15 8 SSW 1018,6 17 60 0,0
12.12.2018 14:00:00 - - - - - - - - - - -
12.12.2018 13:00:00 - - - - - - - - - - -
12.12.2018 12:00:00 18,0 10,9 5 3 10 5 S 1021,2 16 60 0,0
12.12.2018 11:00:00 18,1 11,4 2 1 7 4 SSW 1021,7 18 60 0,0
12.12.2018 10:00:00 15,9 9,0 0 0 9 5 N 1021,6 20 54 0,0
12.12.2018 09:00:00 12,7 7,1 7 4 11 6 NE 1021,6 20 0 0,0
12.12.2018 08:00:00 10,0 6,4 5 3 10 5 NE 1021,0 20 0 0,0
12.12.2018 07:00:00 10,9 6,8 4 2 11 6 N 1020,4 20 0 -
12.12.2018 06:00:00 11,6 7,3 7 4 12 6 NNE 1020,2 20 0 0,0
12.12.2018 05:00:00 12,2 8,8 5 3 11 6 NE 1020,5 20 0 0,0
12.12.2018 04:00:00 11,7 8,8 4 2 9 5 NE 1020,5 18 0 0,0
12.12.2018 03:00:00 10,9 8,1 2 1 8 5 NE 1020,7 15 0 0,0
12.12.2018 02:00:00 11,1 8,1 1 1 10 5 N 1020,5 14 0 0,0
12.12.2018 01:00:00 12,0 9,2 6 3 10 6 ENE 1020,9 17 0 -
12.12.2018 00:00:00 11,9 8,9 2 1 7 4 E 1021,7 11 0 0,0
11.12.2018 23:00:00 12,9 9,7 3 2 9 5 NE 1021,6 14 0 0,0
11.12.2018 22:00:00 13,2 9,3 4 2 8 5 NNW 1021,6 13 0 0,0
11.12.2018 21:00:00 15,1 10,5 5 3 8 5 NE 1021,5 16 0 0,0
11.12.2018 20:00:00 15,5 10,5 5 3 13 7 NNE 1021,8 18 0 0,0
11.12.2018 19:00:00 15,7 10,9 6 3 11 6 NE 1021,7 19 0 -
11.12.2018 18:00:00 15,4 10,5 4 2 11 6 E 1021,7 20 4 0,0
11.12.2018 17:00:00 16,4 10,9 5 3 14 8 SSW 1021,7 20 16 0,0
11.12.2018 16:00:00 17,7 10,5 8 4 15 8 SSW 1021,7 20 60 0,0
11.12.2018 15:00:00 17,9 10,5 4 2 18 10 SSW 1021,8 20 60 0,0
11.12.2018 14:00:00 17,4 10,3 9 5 16 9 SSW 1022,4 20 60 0,0
11.12.2018 13:00:00 17,4 10,0 7 4 17 9 SSW 1023,2 18 60 -
11.12.2018 12:00:00 17,5 9,7 7 4 13 7 SSW 1024,2 20 60 0,0
11.12.2018 11:00:00 17,5 10,6 4 2 8 5 SSW 1024,6 18 60 0,0
11.12.2018 10:00:00 14,9 10,5 1 1 6 3 NW 1024,5 20 55 0,0
11.12.2018 09:00:00 10,2 7,8 1 1 4 2 NE 1024,1 16 0 0,0
11.12.2018 08:00:00 9,1 6,4 1 1 8 4 NNE 1024,0 16 0 0,0
11.12.2018 07:00:00 9,4 6,7 3 1 6 3 NNW 1024,1 18 0 -
11.12.2018 06:00:00 10,2 7,4 3 2 7 4 NE 1024,0 20 0 0,0
11.12.2018 05:00:00 10,9 8,0 3 2 9 5 N 1024,6 19 0 0,0
11.12.2018 04:00:00 10,3 7,4 5 3 8 5 N 1024,9 20 0 0,0
11.12.2018 03:00:00 9,7 6,4 2 1 6 4 NNE 1025,3 20 0 0,0
11.12.2018 02:00:00 10,2 6,4 2 1 8 5 NNE 1025,4 20 0 0,0
11.12.2018 01:00:00 10,6 7,0 0 0 9 5 N 1025,9 20 0 -
11.12.2018 00:00:00 10,9 8,0 3 2 8 4 NE 1026,5 16 0 0,0
10.12.2018 23:00:00 11,7 8,4 1 1 8 4 NNE 1026,6 14 0 0,0
10.12.2018 22:00:00 13,0 9,7 4 2 9 5 NNE 1026,9 14 0 0,0
10.12.2018 21:00:00 13,9 10,2 2 1 9 5 NNE 1027,0 17 0 0,0
10.12.2018 20:00:00 14,6 11,0 2 1 7 4 ENE 1027,0 15 0 0,0
10.12.2018 19:00:00 15,7 11,7 5 3 9 5 ESE 1027,0 20 0 -
10.12.2018 18:00:00 16,3 12,1 6 3 14 7 SE 1026,7 20 0 0,0
10.12.2018 17:00:00 16,8 12,1 9 5 22 12 SE 1026,6 20 18 0,0
10.12.2018 16:00:00 17,4 12,3 15 8 26 14 SE 1026,7 20 46 0,0
10.12.2018 15:00:00 18,2 12,6 16 9 27 15 SE 1026,9 20 60 0,0
10.12.2018 14:00:00 18,6 12,1 16 9 29 16 SE 1027,3 19 60 0,0
10.12.2018 13:00:00 20,1 8,4 15 8 25 14 ESE 1027,9 20 60 -
10.12.2018 12:00:00 20,7 4,6 14 7 22 12 ESE 1028,7 20 60 0,0
10.12.2018 11:00:00 20,2 2,5 5 3 10 5 SW 1029,2 20 60 0,0
10.12.2018 10:00:00 17,3 7,3 2 1 10 5 NW 1028,8 20 56 0,0
10.12.2018 09:00:00 14,6 5,9 7 4 13 7 NE 1028,6 20 0 0,0
10.12.2018 08:00:00 12,6 4,5 5 3 11 6 ENE 1027,7 20 0 0,0
10.12.2018 07:00:00 12,5 6,1 4 2 12 7 ENE 1027,2 20 0 -
10.12.2018 06:00:00 13,0 7,4 5 3 10 6 ENE 1026,9 20 0 0,0
10.12.2018 05:00:00 14,0 8,4 5 3 11 6 ENE 1027,0 20 0 0,0
10.12.2018 04:00:00 13,2 7,1 3 1 11 6 ENE 1027,3 20 0 0,0
10.12.2018 03:00:00 13,5 8,8 5 3 11 6 NE 1027,3 20 0 0,0
10.12.2018 02:00:00 12,6 7,0 4 2 12 6 NNW 1027,4 20 0 0,0
10.12.2018 01:00:00 12,7 8,1 4 2 14 8 NNW 1027,6 20 0 -
10.12.2018 00:00:00 13,3 8,8 6 3 9 5 N 1028,1 20 0 0,0
09.12.2018 23:00:00 13,1 8,5 4 2 8 4 NE 1027,9 20 0 0,0
09.12.2018 22:00:00 13,3 8,4 3 2 9 5 NNE 1027,9 20 0 0,0
09.12.2018 21:00:00 13,8 9,7 4 2 7 4 ENE 1027,7 20 0 0,0
09.12.2018 20:00:00 14,5 10,9 3 1 10 5 NE 1027,3 20 0 0,0
09.12.2018 19:00:00 15,5 11,9 5 3 9 5 NE 1027,1 17 0 -
09.12.2018 18:00:00 17,1 12,6 1 1 8 4 S 1026,6 19 13 0,0
09.12.2018 17:00:00 18,7 12,6 4 2 10 6 SW 1026,7 20 60 0,0
09.12.2018 16:00:00 18,6 12,5 7 4 16 8 S 1026,8 20 60 0,0
09.12.2018 15:00:00 18,9 12,8 8 5 16 9 SSW 1027,1 20 60 0,0
09.12.2018 14:00:00 18,8 12,3 8 4 21 12 SSW 1027,6 14 60 0,0
09.12.2018 13:00:00 19,2 8,5 10 5 19 10 SSW 1028,1 20 60 -
09.12.2018 12:00:00 19,4 9,0 5 3 9 5 W 1028,8 20 60 0,0
09.12.2018 11:00:00 17,0 8,7 3 1 5 3 S 1029,9 20 51 0,0
09.12.2018 10:00:00 15,3 9,2 3 1 6 4 WNW 1029,5 20 56 0,0
09.12.2018 09:00:00 10,7 8,0 1 1 8 5 WNW 1029,4 20 0 0,0
09.12.2018 08:00:00 9,6 6,8 2 1 9 5 ENE 1029,6 19 0 0,0
09.12.2018 07:00:00 9,7 7,0 4 2 9 5 N 1029,3 20 0 -
09.12.2018 06:00:00 10,2 7,3 5 3 10 5 NNW 1028,9 20 0 0,0
09.12.2018 05:00:00 10,6 7,4 3 2 10 5 NE 1029,1 20 0 0,0
09.12.2018 04:00:00 10,6 7,7 5 3 9 5 N 1029,2 20 0 0,0
09.12.2018 03:00:00 11,0 8,0 5 3 9 5 NNE 1029,3 20 0 0,0
09.12.2018 02:00:00 10,7 7,7 3 1 8 5 W 1029,2 20 0 0,0
09.12.2018 01:00:00 11,4 8,3 4 2 10 5 N 1029,7 20 0 -
09.12.2018 00:00:00 11,7 8,4 6 3 10 5 N 1029,9 20 0 0,0
08.12.2018 23:00:00 12,2 8,8 3 1 8 4 NNE 1029,9 20 0 0,0
08.12.2018 22:00:00 12,8 9,4 3 1 5 3 E 1029,9 18 0 0,0
08.12.2018 21:00:00 13,9 10,2 4 2 9 5 NNE 1029,5 20 0 0,0
08.12.2018 20:00:00 15,0 10,6 1 1 8 5 E 1029,1 20 0 0,0
08.12.2018 19:00:00 15,9 11,1 2 1 9 5 NE 1028,4 20 0 -
08.12.2018 18:00:00 16,7 10,8 2 1 10 6 S 1027,7 20 10 0,0
08.12.2018 17:00:00 17,9 10,5 5 3 10 5 E 1027,3 20 60 0,0
08.12.2018 16:00:00 18,6 10,9 3 2 8 4 S 1026,9 20 60 0,0
08.12.2018 15:00:00 18,8 11,3 5 3 11 6 S 1026,8 20 60 0,0
08.12.2018 14:00:00 19,6 10,3 8 4 14 8 SSE 1027,1 20 60 0,0
08.12.2018 13:00:00 19,6 10,3 5 3 10 5 SSE 1027,7 14 60 -
08.12.2018 12:00:00 19,1 10,2 3 2 10 5 SSE 1028,0 20 60 0,0
08.12.2018 11:00:00 19,0 10,0 5 3 8 4 SSW 1027,9 17 60 0,0
08.12.2018 10:00:00 16,3 10,6 3 2 9 5 N 1027,6 17 57 0,2
08.12.2018 09:00:00 12,8 8,3 5 3 11 6 NNE 1026,9 20 0 0,0
08.12.2018 08:00:00 11,1 7,6 8 4 11 6 N 1026,6 20 0 0,0
08.12.2018 07:00:00 11,7 8,4 7 4 12 7 NE 1025,8 15 0 -
08.12.2018 06:00:00 10,3 7,4 3 1 8 5 NNE 1024,7 17 0 0,0
08.12.2018 05:00:00 11,7 8,9 5 3 11 6 NNE 1024,7 11 0 0,0
08.12.2018 04:00:00 12,4 9,9 8 4 12 7 NNE 1025,1 6 0 0,0
08.12.2018 03:00:00 11,7 9,0 6 3 8 5 NNW 1024,8 8 0 0,0
08.12.2018 02:00:00 12,9 10,3 5 3 11 6 NE 1024,7 5 0 0,0
08.12.2018 01:00:00 13,0 10,0 5 3 11 6 NE 1024,9 8 0 -

tt = temperature
td = dewpoint
ff = wind speed
fx = gusts
dd = wind direction
ppp = reduced air pressure
vv = visibility
sd = sunshine duration
rr = precipitation

Next stations